Weather History for Albuquerque Double Eagle, NM

Change the Weather History Date:

Saturday, September 21, 2013

  Actual Average Record
Temperature  
Mean Temperature 65 °F -  
Max Temperature 77 °F - - ()
Min Temperature 53 °F - - ()
Growing Degree Days 15 (Base 50)    
Moisture  
Dew Point 52 °F    
Average Humidity 73    
Maximum Humidity 94    
Minimum Humidity 38    
Precipitation  
Precipitation 0.00 in - - ()
Sea Level Pressure  
Sea Level Pressure 30.16 in    
Wind  
Wind Speed 6 mph (SE)    
Max Wind Speed 16 mph    
Max Gust Speed 20 mph    
Visibility 10 miles    
Events      
T = Trace of Precipitation, MM = Missing Value Source: NWS Daily Summary

Daily Weather History Graph

Daily Weather History Graph

Search for Another Location

Airport:

Trip Planner

Search our weather history database for the weather conditions in past years. The results will help you decide how hot, cold, wet, or windy it might be!

Date:

Astronomy

Sep. 21, 2013 Rise Set
Actual Time 6:54 AM MDT 7:04 PM MDT
Civil Twilight 6:29 AM MDT 7:30 PM MDT
Nautical Twilight 5:59 AM MDT 7:59 PM MDT
Astronomical Twilight 5:29 AM MDT 8:29 PM MDT
Moon 8:25 PM MDT (9/21) 9:09 AM MDT (9/21)
Length of Visible Light 13h 00m
Length of Day
12h 10m
Waning Gibbous, 94% of the Moon is Illuminated
Sep 21
Waning Gibbous
Sep 26
Last Quarter
Oct 4
New
Oct 11
First Quarter
Oct 18
Full

Hourly Weather History & Observations

Time (MDT) Temp. Dew Point Humidity Pressure Visibility Wind Dir Wind Speed Gust Speed Precip Events Conditions
12:15 AM 57.6 °F 52.0 °F 82% 30.20 in 10.0 mi SW 4.6 mph - N/A   Clear
12:35 AM 57.2 °F 51.8 °F 82% 30.20 in 10.0 mi SW 5.8 mph - N/A   Clear
12:55 AM 58.8 °F 50.9 °F 75% 30.20 in 10.0 mi SSE 4.6 mph - N/A   Clear
1:15 AM 59.2 °F 50.7 °F 74% 30.20 in 10.0 mi SSE 8.1 mph - N/A   Clear
1:35 AM 57.7 °F 51.3 °F 79% 30.20 in 10.0 mi ESE 4.6 mph - N/A   Clear
1:55 AM 58.1 °F 51.8 °F 80% 30.21 in 10.0 mi ESE 4.6 mph - N/A   Clear
2:15 AM 57.7 °F 52.2 °F 82% 30.20 in 10.0 mi East 4.6 mph - N/A   Clear
2:35 AM 57.7 °F 52.0 °F 81% 30.20 in 10.0 mi ENE 3.5 mph - N/A   Clear
2:55 AM 56.7 °F 52.0 °F 84% 30.19 in 10.0 mi NNE 4.6 mph - N/A   Clear
3:15 AM 55.6 °F 52.0 °F 88% 30.19 in 10.0 mi NE 3.5 mph - N/A   Clear
3:35 AM 56.3 °F 52.2 °F 86% 30.19 in 10.0 mi NE 3.5 mph - N/A   Clear
3:55 AM 55.4 °F 52.0 °F 88% 30.19 in 10.0 mi Calm Calm - N/A   Clear
4:15 AM 55.0 °F 51.8 °F 89% 30.19 in 10.0 mi Calm Calm - N/A   Clear
4:35 AM 55.0 °F 52.0 °F 89% 30.19 in 10.0 mi NNE 3.5 mph - N/A   Scattered Clouds
4:55 AM 54.3 °F 51.3 °F 89% 30.19 in 10.0 mi Calm Calm - N/A   Scattered Clouds
5:15 AM 54.1 °F 51.4 °F 91% 30.19 in 10.0 mi Calm Calm - N/A   Scattered Clouds
5:35 AM 54.0 °F 51.6 °F 92% 30.19 in 10.0 mi NE 3.5 mph - N/A   Scattered Clouds
5:50 AM 53.6 °F 51.8 °F 94% 30.19 in 10.0 mi NE 3.5 mph - N/A   Scattered Clouds
6:50 AM 53.6 °F 51.8 °F 94% 30.20 in 10.0 mi Calm Calm - N/A   Partly Cloudy
7:50 AM 55.4 °F 53.6 °F 94% 30.21 in 10.0 mi Calm Calm - N/A   Partly Cloudy
8:50 AM 60.8 °F 53.6 °F 77% 30.21 in 10.0 mi Variable 4.6 mph - N/A   Partly Cloudy
9:50 AM 62.6 °F 53.6 °F 72% 30.22 in 10.0 mi Variable 5.8 mph - N/A   Partly Cloudy
10:50 AM 66.2 °F 53.6 °F 64% 30.21 in 10.0 mi Variable 5.8 mph - N/A   Partly Cloudy
11:50 AM 68.0 °F 53.6 °F 60% 30.20 in 10.0 mi SE 9.2 mph - N/A   Partly Cloudy
12:50 PM 71.6 °F 53.6 °F 53% 30.18 in 10.0 mi South 9.2 mph - N/A   Partly Cloudy
1:50 PM 73.4 °F 53.6 °F 50% 30.15 in 10.0 mi South 10.4 mph 16.1 mph N/A   Partly Cloudy
2:50 PM 75.2 °F 53.6 °F 47% 30.12 in 10.0 mi SSE 12.7 mph - N/A   Partly Cloudy
3:50 PM 77.0 °F 51.8 °F 41% 30.08 in 10.0 mi South 16.1 mph - N/A   Partly Cloudy
4:50 PM 77.0 °F 50.0 °F 39% 30.06 in 10.0 mi SSE 13.8 mph - N/A   Partly Cloudy
5:50 PM 75.2 °F 48.2 °F 38% 30.05 in 10.0 mi South 12.7 mph 19.6 mph N/A   Partly Cloudy
6:50 PM 71.6 °F 46.4 °F 41% 30.05 in 10.0 mi SSE 11.5 mph - N/A   Partly Cloudy
10:15 PM 63.7 °F 49.6 °F 60% 30.06 in 10.0 mi South 11.5 mph - N/A   Clear
10:35 PM 63.0 °F 49.6 °F 62% 30.06 in 10.0 mi South 12.7 mph - N/A   Clear
10:55 PM 62.2 °F 49.6 °F 63% 30.06 in 10.0 mi South 10.4 mph - N/A   Clear
11:15 PM 61.7 °F 50.0 °F 65% 30.06 in 10.0 mi South 9.2 mph - N/A   Clear
11:35 PM 60.8 °F 50.7 °F 69% 30.07 in 10.0 mi SSE 9.2 mph - N/A   Clear
11:55 PM 61.0 °F 51.4 °F 71% 30.07 in 10.0 mi SSE 10.4 mph - N/A   Clear